Showing default

POLAR SCOUT YUKON, 43808

Orbit data source: Space-Track

POLAR SCOUT YUKON, 43808 is an American payload satellite in SSO that was launched on Mon, 03 Dec 2018 UTC via an FALCON 9 launch vehicle from the Air Force Western Test Range (AFWTR). Payload-class satellites include a variety of spacecraft equipped with specific instruments for various scientific and technological missions. These include communications satellites like Starlink; space stations such as the ISS; scientific satellites like the Hubble; Earth observation satellites from companies like Planet Labs, Umbra, and HawkEye 360; GPS; miniature CubeSats for education and research; and military/defense satellites.

Loading next visibility...
Identifier
43808, 2018-099BC
Orbit
SSO
Country
Flag of USUS
Related business
Manufacturer
Millenium EI
Mission
Operational Defense Technology
Bus & Motor
CUBESAT 6U, Unknown motor
Mass
10 kg wet, 10 kg dry
Launch date (UTC)
2018-12-03 (8 years ago)
Launch vehicle
FALCON 9
Launch site
Air Force Western Test Range (AFWTR)
Object type
Payload
Rocket body
Debris
Shape & HBR
Box + 3 Pan, 0.3 m
Radar Cross Section
0.054 m², Medium (>0.1 m² and < 1m²)

Expand to show TLE details & history
Last TLE update: 2 days ago

TLE from 2 days ago
0 POLAR SCOUT YUKON
1 43808U 18099BC  26171.45440894  .00017994  00000-0  48124-3 0  9997
2 43808  97.4676 244.3103 0003302 315.1554  44.9424 15.38112383414015
Epoch: 2026-06-20T10:54Z
TLE epoch observation values (Epoch: 2026-06-20T10:54:20.932Z)
Latitude
0.00003°
Longitude
172.05428°
Altitude
453.208 km
Speed
7.641 km/s
True Right ascension
16h 17m 14s
True Declination
0° 00' 00"
Sunlit
Object was in full shadow at epoch
Visualization orbit readout
Latitude
Unknown
Longitude
Unknown
Altitude
Unknown
Speed
Unknown
Apparent Right ascension
Unknown
Apparent Declination
Unknown
Sunlit
N/A
Visualization observer readout
Local Sidereal Time
21:40:26
Azimuth
Unknown
Elevation
Unknown
Doppler factor
Unknown
Orbital elements
Apogee altitude
450.89 km
Perigee altitude
446.382 km
Semi-major axis
6,826.773 km
Eccentricity
0.00033
Inclination
97.4676°
RAAN
244.3103°
Arg. of periapsis
315.1554°
True anomaly
44.96914°
Mean anomaly
44.9424°
Eccentric anomaly
44.95577°
Mean motion
3.84787 °/min
Orbital period
93.56 mins
BSTAR
0.00048124
Loading maneuver chart data...
Computing Atmospheric mass density...
Loading historical data...
Loading historical data...
Loading historical data...
Loading historical data...
Loading historical data...
Loading historical data...
Loading historical data...

Documentation

Showing up to 5 results
|